Simultaneous Nadir Overpasses (SNOs) Predictions

Prediction of SNOs between LANDSAT-8 and NPP Satellite Orbit:

Table of predicted SNOs for the next 14.0 days since TLE Epoch: 1/8/2016
Index Date (LANDSAT-8) Time (LANDSAT-8) Lat,Lon (LANDSAT-8) SZA (LANDSAT-8 ) Date (NPP) Time (NPP) Lat,Lon (NPP) SZA (NPP ) Distance(km) Time Diff (sec)
1 01/09/2016 13:02:51 70.88, -18.17 92.95 01/09/2016 13:01:42 70.94, -19.85 93.07 61.59 69
2 01/09/2016 13:52:30 -70.27, 148.56 87.65 01/09/2016 13:52:13 -70.28, 148.53 87.63 1.77 17
3 01/09/2016 14:41:57 70.17, -43.94 92.26 01/09/2016 14:42:57 70.16, -43.97 92.24 2.19 60
4 01/12/2016 05:19:31 70.34, 96.90 92.03 01/12/2016 05:18:23 70.31, 96.94 92.02 3.29 68
5 01/12/2016 06:09:01 -70.23, -95.63 88.08 01/12/2016 06:09:05 -70.23, -95.62 88.08 0.71 4
6 01/12/2016 06:58:33 69.85, 71.48 91.55 01/12/2016 06:59:44 69.84, 72.27 91.52 30.45 71
7 01/14/2016 21:36:01 70.33,-147.23 91.59 01/14/2016 21:35:16 70.32,-147.30 91.58 3.25 45
8 01/14/2016 22:25:32 -70.17, 20.17 88.58 01/14/2016 22:25:57 -70.18, 20.22 88.57 2.50 25
9 01/17/2016 13:52:32 70.27, -31.45 91.03 01/17/2016 13:52:08 70.27, -31.46 91.04 0.47 24
10 01/17/2016 14:42:02 -70.16, 136.03 89.08 01/17/2016 14:42:49 -70.14, 136.07 89.11 3.17 47
11 01/20/2016 05:19:32 -70.47, -82.93 89.32 01/20/2016 05:18:19 -70.56, -83.44 89.20 21.54 73
12 01/20/2016 06:09:01 70.25, 84.39 90.47 01/20/2016 06:08:59 70.23, 84.38 90.46 2.07 2
13 01/20/2016 06:58:31 -70.15,-108.12 89.64 01/20/2016 06:59:41 -70.15,-108.17 89.64 2.02 70




NCC Satellite Simultaneous Nadir Overpasses (SNOs) Prediction Service
